Bilbao, Spain

8:57 PM CET en Febrero 18, 2018 (GMT +0100)
Bilbao

Tiempo Historia de LEBB - Febrero, 2018

Change the Weather History Date:

Martes, Febrero 13, 2018

  Actual Average Record
Temperature  
Temperatura media 39 ° F -  
Temperatura máxima 48 ° F 58 ° F 71 ° F (1998)
Temperatura mínima 30 ° F 42 ° F 30 ° F (1999)
Degree Days  
Grados día de calefacción 26    
Moisture  
Punto de rocío 36 ° F    
Average Humidity 79    
Maximum Humidity 100    
Minimum Humidity 33    
Precipitación  
Precipitación 0.08 pul - - ()
Presión al nivel del mar  
Presión al nivel del mar 30.00 pul    
Viento  
Velocidad del viento 6 mph ()    
Velocidad máxima del viento 23 mph    
Max Gust Speed 40 mph    
Visibilidad 6.2 Millas    
Eventos Lluvia    
Averages and records for this station are not official NWS values.
T = Trace of Precipitation, MM = Missing Value Source: Averaged Metar Reports

Daily Weather History Graph

Daily Weather History Graph

Search for Another Location

Airport or City:

Trip Planner

Search our weather history database for the weather conditions in past years. The results will help you decide how hot, cold, wet, or windy it might be!

Date:

Astronomía

Feb. 13, 2018 Salida Puesta
Hora real 8:12 AM CET 6:39 PM CET
Crepúsculo civil 7:43 AM CET 7:09 PM CET
Crepúsculo náutico 7:09 AM CET 7:42 PM CET
Crepúsculo astronómico 6:36 AM CET 8:15 PM CET
Luna 6:43 AM CET (2/13) 4:30 PM CET (2/13)
Horas de luz 11h 25m
Horas de luz
10h 26m
Creciente menguante, 5% of the Moon is Illuminated
Feb 13
Creciente menguante
Feb 15
Nueva
Feb 23
Cuarto creciente
Mar 2
Luna llena
Mar 9
Cuarto menguante

Hourly Weather History & Observations

Hora (CET) Temp. Vientos helados Punto de rocío Humedad Presión Visibilidad Wind Dir Velocidad del viento Velocidad de ráfagas Precip Eventos Condiciones
12:00 AM 32 ° F - 31 ° F 96% 30.21 pul - Este 3.5 mph - -  
12:00 AM 33.8 ° F 30.8 ° F 33.8 ° F 100% 30.18 pul 4.3 mi Este 3.5 mph - N/A   Parcialmente nublado
12:30 AM 33.8 ° F - 33.8 ° F 100% 30.18 pul - Sin viento Sin viento - N/A   Neblina
1:00 AM 32 ° F - 31 ° F 93% 30.17 pul - SE 1.2 mph - -  
1:00 AM 32.0 ° F - 32.0 ° F 100% 30.15 pul 3.1 mi Variable 2.3 mph - N/A   Neblina
1:30 AM 32.0 ° F - 32.0 ° F 100% 30.15 pul 3.7 mi Sin viento Sin viento - N/A   Desconocido
2:00 AM 32 ° F - 30 ° F 91% 30.16 pul - Sin viento Sin viento - -  
2:00 AM 32.0 ° F - 32.0 ° F 100% 30.12 pul 5.6 mi Sin viento Sin viento - N/A   Desconocido
2:30 AM 32.0 ° F - 32.0 ° F 100% 30.12 pul 5.0 mi Sin viento Sin viento - N/A   Desconocido
3:00 AM 32 ° F - 31 ° F 93% 30.12 pul - OSO 1.2 mph - -  
3:00 AM 32.0 ° F - 32.0 ° F 100% 30.09 pul 4.3 mi Sin viento Sin viento - N/A   Desconocido
3:30 AM 32.0 ° F 28.7 ° F 32.0 ° F 100% 30.06 pul 5.6 mi ESE 3.5 mph - N/A   Desconocido
4:00 AM 32.0 ° F 25.6 ° F 32.0 ° F 100% 30.06 pul - ESE 6.9 mph - N/A   Despejado
4:30 AM 35.6 ° F 28.6 ° F 32.0 ° F 87% 30.04 pul - Este 9.2 mph - N/A   Despejado
5:00 AM 34 ° F - 31 ° F 82% 30.04 pul - ESE 6.9 mph - -  
5:00 AM 33.8 ° F 27.7 ° F 30.2 ° F 87% 30.01 pul - ESE 6.9 mph - N/A   Despejado
5:30 AM 35.6 ° F - 32.0 ° F 87% 30.01 pul - Variable 2.3 mph - N/A   Despejado
6:00 AM 35 ° F - 31 ° F 78% 30.00 pul - ENE 4.6 mph - -  
6:00 AM 37.4 ° F 32.8 ° F 32.0 ° F 81% 29.98 pul - ENE 5.8 mph - N/A   Despejado
6:30 AM 41.0 ° F - 28.4 ° F 61% 29.98 pul - Variable 2.3 mph - N/A   Despejado
7:00 AM 43 ° F - 28 ° F 43% 29.97 pul 9 mi SO 10.4 mph - -   Muy nublado
7:00 AM 42.8 ° F 40.1 ° F 28.4 ° F 57% 29.95 pul - OSO 4.6 mph 17.3 mph N/A   Despejado
7:30 AM 44.6 ° F 37.8 ° F 28.4 ° F 53% 29.92 pul 6.2 mi SO 15.0 mph 26.5 mph N/A   Parcialmente nublado
8:00 AM 46 ° F - 26 ° F 33% 29.94 pul - SO 17.3 mph - -  
8:00 AM 44.6 ° F 37.2 ° F 28.4 ° F 53% 29.92 pul 6.2 mi SO 17.3 mph - N/A   Nubes dispersas
8:30 AM 46.4 ° F 40.4 ° F 28.4 ° F 50% 29.89 pul 6.2 mi SSO 13.8 mph 33.4 mph N/A   Muy nublado
9:00 AM 46 ° F - 28 ° F 38% 29.91 pul - SSO 17.3 mph - -  
9:00 AM 46.4 ° F 39.5 ° F 30.2 ° F 53% 29.89 pul 6.2 mi SSO 17.3 mph - N/A   Nublado
9:30 AM 46.4 ° F 39.0 ° F 32.0 ° F 57% 29.89 pul 6.2 mi SO 19.6 mph 36.8 mph N/A Lluvia Lluvia débil
10:00 AM 46 ° F - 31 ° F 44% 29.92 pul 7 mi SO 18.4 mph - - Lluvia Lluvia débil
10:00 AM 44.6 ° F 37.2 ° F 33.8 ° F 66% 29.89 pul 6.2 mi SO 17.3 mph 32.2 mph N/A Lluvia Lluvia débil
10:30 AM 44.6 ° F 35.9 ° F 33.8 ° F 66% 29.92 pul 6.2 mi SO 23.0 mph 40.3 mph N/A Lluvia Lluvia débil
11:00 AM 44.6 ° F 37.2 ° F 33.8 ° F 66% 29.95 pul 6.2 mi OSO 17.3 mph 32.2 mph N/A Lluvia Lluvia débil
11:30 AM 44.6 ° F 36.6 ° F 35.6 ° F 71% 29.95 pul 5.6 mi SO 19.6 mph 31.1 mph N/A Lluvia Lluvia débil
12:00 PM 45 ° F - 34 ° F 54% 29.97 pul - SO 18.4 mph - -   Precipitación desconocida
12:00 PM 44.6 ° F 36.9 ° F 35.6 ° F 71% 29.95 pul 6.2 mi SO 18.4 mph 32.2 mph N/A   Muy nublado
12:30 PM 46.4 ° F 40.1 ° F 35.6 ° F 66% 29.95 pul 6.2 mi OSO 15.0 mph 27.6 mph N/A   Muy nublado
1:00 PM 46.4 ° F 39.5 ° F 37.4 ° F 71% 29.95 pul 6.2 mi OSO 17.3 mph 29.9 mph N/A   Muy nublado
1:30 PM 46.4 ° F 40.4 ° F 37.4 ° F 71% 29.95 pul 5.6 mi OSO 13.8 mph 26.5 mph N/A Lluvia Lluvia débil
2:00 PM 46 ° F - 36 ° F 59% 29.95 pul - SO 13.8 mph - -   Precipitación desconocida
2:00 PM 46.4 ° F 40.1 ° F 39.2 ° F 76% 29.92 pul 6.2 mi SO 15.0 mph 27.6 mph N/A   Muy nublado
2:30 PM 46.4 ° F 39.8 ° F 37.4 ° F 71% 29.92 pul 6.2 mi OSO 16.1 mph 27.6 mph N/A   Muy nublado
3:00 PM 48 ° F - 36 ° F 51% 29.94 pul - OSO 15.0 mph - -  
3:00 PM 48.2 ° F - 37.4 ° F 66% 29.92 pul 6.2 mi OSO 15.0 mph - N/A   Muy nublado
3:30 PM 48.2 ° F - 39.2 ° F 71% 29.95 pul 6.2 mi OSO 11.5 mph - N/A   Muy nublado
4:00 PM 46.4 ° F 41.1 ° F 41.0 ° F 81% 29.95 pul 6.2 mi SO 11.5 mph - N/A   Muy nublado
4:30 PM 46.4 ° F 40.7 ° F 41.0 ° F 81% 29.95 pul 6.2 mi SO 12.7 mph - N/A   Muy nublado
5:00 PM 46 ° F - 40 ° F 73% 29.99 pul - OSO 5.8 mph - -   Precipitación desconocida
5:00 PM 46.4 ° F 43.5 ° F 42.8 ° F 87% 29.98 pul 6.2 mi Oeste 5.8 mph - N/A Lluvia Lluvia débil
5:30 PM 46.4 ° F 45.2 ° F 42.8 ° F 87% 29.98 pul 6.2 mi Oeste 3.5 mph - N/A Lluvia Lluvia débil
6:00 PM 46 ° F - 41 ° F 77% 29.99 pul - Oeste 3.5 mph - -   Precipitación desconocida
6:00 PM 46.4 ° F 45.2 ° F 42.8 ° F 87% 29.98 pul 6.2 mi OSO 3.5 mph - N/A Lluvia Lluvia débil
6:30 PM 46.4 ° F 44.3 ° F 44.6 ° F 93% 29.98 pul 6.2 mi Oeste 4.6 mph - N/A Lluvia Lluvia débil
7:00 PM 47 ° F - 43 ° F 79% 30.01 pul 12 mi Oeste 3.5 mph - - Lluvia Lluvia débil
7:00 PM 46.4 ° F 45.2 ° F 44.6 ° F 93% 29.98 pul 6.2 mi Oeste 3.5 mph - N/A Lluvia Lluvia débil
7:30 PM 46.4 ° F - 44.6 ° F 93% 30.01 pul 6.2 mi Sin viento Sin viento - N/A Lluvia Lluvia débil
8:00 PM 44 ° F - 42 ° F 92% 30.02 pul - Este 2.3 mph - -   Precipitación desconocida
8:00 PM 46.4 ° F - 44.6 ° F 93% 30.01 pul 5.0 mi Variable 1.2 mph - N/A Lluvia Lluvia débil
8:30 PM 44.6 ° F 43.1 ° F 42.8 ° F 93% 30.01 pul 6.2 mi SE 3.5 mph - N/A Lluvia Lluvia débil
9:00 PM 44.6 ° F 42.2 ° F 44.6 ° F 100% 30.01 pul 6.2 mi Este 4.6 mph - N/A Lluvia Lluvia débil
9:30 PM 44.6 ° F - 44.6 ° F 100% 30.04 pul 6.2 mi ESE 2.3 mph - N/A Lluvia Lluvia débil
10:00 PM 44 ° F - 42 ° F 92% 30.03 pul 9 mi ESE 5.8 mph - - Lluvia Lluvia débil
10:00 PM 44.6 ° F 42.2 ° F 42.8 ° F 93% 30.01 pul 6.2 mi ESE 4.6 mph - N/A Lluvia Lluvia débil
10:30 PM 44.6 ° F 43.1 ° F 44.6 ° F 100% 30.01 pul 6.2 mi ESE 3.5 mph - N/A Lluvia Lluvia débil
11:00 PM 44 ° F - 42 ° F 91% 30.03 pul - Este 5.8 mph - -   Precipitación desconocida
11:00 PM 44.6 ° F 42.2 ° F 44.6 ° F 100% 30.01 pul 6.2 mi Este 4.6 mph - N/A   Nubes dispersas
11:30 PM 44.6 ° F - 42.8 ° F 93% 30.01 pul 6.2 mi Variable 2.3 mph - N/A   Nubes dispersas